| time (UTC) | temp C | wind direction | speed KPH | gust KPH | rain 1hr cm | rain 24hr cm | rain mn cm | humidity % | barometer mb |
| 20260906164932 | 29 | 99 | 4.8 | 6.4 | 0.00 | 0.00 | 0.00 | 79 | 1016.8 |
| 20260906164430 | 29 | 59 | 4.8 | 6.4 | 0.00 | 0.00 | 0.00 | 79 | 1016.8 |
| 20260906163927 | 30 | 143 | 4.8 | 14.5 | 0.00 | 0.00 | 0.00 | 78 | 1016.8 |
| 20260906163423 | 29 | 72 | 1.6 | 9.7 | 0.00 | 0.00 | 0.00 | 79 | 1016.6 |
| 20260906162920 | 29 | 110 | 9.7 | 11.3 | 0.00 | 0.00 | 0.00 | 77 | 1016.8 |
| 20260906162414 | 29 | 48 | 6.4 | 12.9 | 0.00 | 0.00 | 0.00 | 78 | 1016.8 |
| 20260906161909 | 28 | 97 | 8.0 | 9.7 | 0.00 | 0.00 | 0.00 | 79 | 1016.9 |
| 20260906161408 | 28 | 112 | 6.4 | 11.3 | 0.00 | 0.00 | 0.00 | 79 | 1016.9 |
| 20260906160907 | 29 | 113 | 6.4 | 9.7 | 0.00 | 0.00 | 0.00 | 78 | 1017.0 |
| 20260906160401 | 29 | 104 | 6.4 | 11.3 | 0.00 | 0.00 | 0.00 | 78 | 1016.9 |
| 20260906155859 | 29 | 111 | 4.8 | 12.9 | 0.00 | 0.00 | 0.00 | 78 | 1016.7 |
| 20260906155353 | 28 | 145 | 6.4 | 9.7 | 0.00 | 0.00 | 0.00 | 78 | 1016.8 |
| 20260906154849 | 28 | 83 | 3.2 | 6.4 | 0.00 | 0.00 | 0.00 | 81 | 1016.7 |
| 20260906154343 | 28 | 93 | 3.2 | 9.7 | 0.00 | 0.00 | 0.00 | 80 | 1016.9 |
| 20260906153842 | 28 | 97 | 6.4 | 11.3 | 0.00 | 0.00 | 0.00 | 79 | 1016.9 |
| 20260906153336 | 28 | 150 | 6.4 | 12.9 | 0.00 | 0.00 | 0.00 | 80 | 1016.8 |
| 20260906152831 | 28 | 132 | 6.4 | 12.9 | 0.00 | 0.00 | 0.00 | 80 | 1016.8 |
| 20260906152326 | 28 | 76 | 0.0 | 4.8 | 0.00 | 0.00 | 0.00 | 80 | 1017.0 |
| 20260906151825 | 28 | 120 | 4.8 | 9.7 | 0.00 | 0.00 | 0.00 | 80 | 1017.1 |
| 20260906151321 | 28 | 87 | 1.6 | 6.4 | 0.00 | 0.00 | 0.00 | 81 | 1017.0 |
| 20260906150817 | 27 | 103 | 0.0 | 4.8 | 0.00 | 0.00 | 0.00 | 81 | 1017.2 |
| 20260906150312 | 27 | 87 | 6.4 | 11.3 | 0.00 | 0.00 | 0.00 | 81 | 1017.1 |
| 20260906145811 | 27 | 76 | 4.8 | 11.3 | 0.00 | 0.00 | 0.00 | 82 | 1017.1 |
| 20260906145310 | 27 | 104 | 6.4 | 9.7 | 0.00 | 0.00 | 0.00 | 83 | 1017.1 |
| 20260906144805 | 26 | 107 | 3.2 | 9.7 | 0.00 | 0.00 | 0.00 | 84 | 1017.2 |
| 20260906144300 | 27 | 94 | 4.8 | 12.9 | 0.00 | 0.00 | 0.00 | 82 | 1017.2 |
| 20260906143759 | 26 | 140 | 11.3 | 14.5 | 0.00 | 0.00 | 0.00 | 83 | 1017.1 |
| 20260906143257 | 26 | 104 | 6.4 | 14.5 | 0.00 | 0.00 | 0.00 | 85 | 1016.9 |
| 20260906142756 | 26 | 140 | 4.8 | 11.3 | 0.00 | 0.00 | 0.00 | 86 | 1016.8 |
| 20260906142252 | 26 | 88 | 4.8 | 12.9 | 0.00 | 0.00 | 0.00 | 87 | 1016.8 |
| 20260906141750 | 26 | 99 | 6.4 | 6.4 | 0.00 | 0.00 | 0.00 | 86 | 1017.0 |
| 20260906141245 | 26 | 98 | 4.8 | 9.7 | 0.00 | 0.00 | 0.00 | 87 | 1017.0 |
| 20260906140744 | 26 | 102 | 3.2 | 6.4 | 0.00 | 0.00 | 0.00 | 87 | 1017.0 |
| 20260906140239 | 25 | 94 | 1.6 | 6.4 | 0.00 | 0.00 | 0.00 | 87 | 1016.9 |
| 20260906135736 | 26 | 92 | 3.2 | 6.4 | 0.00 | 0.00 | 0.00 | 88 | 1016.9 |
| 20260906135232 | 25 | 91 | 4.8 | 9.7 | 0.00 | 0.00 | 0.00 | 89 | 1016.9 |
| 20260906134728 | 25 | 105 | 3.2 | 9.7 | 0.00 | 0.00 | 0.00 | 89 | 1017.0 |
| 20260906134223 | 25 | 91 | 4.8 | 9.7 | 0.00 | 0.00 | 0.00 | 90 | 1017.0 |
| 20260906133719 | 25 | 128 | 8.0 | 11.3 | 0.00 | 0.00 | 0.00 | 90 | 1016.9 |
| 20260906133214 | 25 | 101 | 9.7 | 12.9 | 0.00 | 0.00 | 0.00 | 91 | 1016.8 |
| 20260906132709 | 25 | 100 | 3.2 | 11.3 | 0.00 | 0.00 | 0.00 | 91 | 1016.9 |
| 20260906132205 | 25 | 92 | 3.2 | 4.8 | 0.00 | 0.00 | 0.00 | 91 | 1016.9 |
| 20260906131700 | 25 | 79 | 3.2 | 6.4 | 0.00 | 0.00 | 0.00 | 92 | 1016.7 |
| 20260906131155 | 24 | 141 | 6.4 | 11.3 | 0.00 | 0.00 | 0.00 | 93 | 1016.7 |
| 20260906130650 | 24 | 97 | 3.2 | 12.9 | 0.00 | 0.00 | 0.00 | 94 | 1016.8 |
| 20260906130145 | 23 | 87 | 3.2 | 11.3 | 0.00 | 0.00 | 0.00 | 94 | 1016.7 |
| 20260906125643 | 23 | 85 | 4.8 | 9.7 | 0.00 | 0.00 | 0.00 | 94 | 1016.5 |
| 20260906125142 | 23 | 96 | 6.4 | 9.7 | 0.00 | 0.00 | 0.00 | 95 | 1016.6 |
| 20260906124638 | 23 | 96 | 3.2 | 11.3 | 0.00 | 0.00 | 0.00 | 95 | 1016.6 |
| 20260906124133 | 23 | 86 | 1.6 | 4.8 | 0.00 | 0.00 | 0.00 | 95 | 1016.5 |
| 20260906123632 | 23 | 94 | 8.0 | 9.7 | 0.00 | 0.00 | 0.00 | 95 | 1016.4 |
| 20260906123127 | 23 | 76 | 3.2 | 9.7 | 0.00 | 0.00 | 0.00 | 95 | 1016.3 |
| 20260906122626 | 23 | 108 | 1.6 | 6.4 | 0.00 | 0.00 | 0.00 | 95 | 1016.4 |
| 20260906122122 | 23 | 78 | 3.2 | 3.2 | 0.00 | 0.00 | 0.00 | 95 | 1016.4 |
| 20260906121618 | 23 | 97 | 4.8 | 6.4 | 0.00 | 0.00 | 0.00 | 95 | 1016.3 |
| 20260906121114 | 23 | 81 | 3.2 | 6.4 | 0.00 | 0.00 | 0.00 | 95 | 1016.2 |
| 20260906120610 | 23 | 88 | 4.8 | 6.4 | 0.00 | 0.00 | 0.00 | 95 | 1016.0 |
| 20260906120107 | 23 | 85 | 3.2 | 4.8 | 0.00 | 0.00 | 0.00 | 95 | 1015.8 |
| 20260906115606 | 23 | 96 | 3.2 | 4.8 | 0.00 | 0.00 | 0.00 | 95 | 1015.8 |
| 20260906115101 | 23 | 84 | 6.4 | 11.3 | 0.00 | 0.00 | 0.00 | 95 | 1015.8 |
| 20260906114556 | 23 | 76 | 1.6 | 6.4 | 0.00 | 0.00 | 0.00 | 95 | 1015.9 |
| 20260906114051 | 23 | 96 | 3.2 | 4.8 | 0.00 | 0.00 | 0.00 | 95 | 1015.8 |
| 20260906113550 | 23 | 110 | 4.8 | 9.7 | 0.00 | 0.00 | 0.00 | 95 | 1015.9 |
| 20260906113046 | 23 | 106 | 1.6 | 11.3 | 0.00 | 0.00 | 0.00 | 95 | 1015.9 |
| 20260906112540 | 23 | 87 | 3.2 | 4.8 | 0.00 | 0.00 | 0.00 | 95 | 1015.8 |
| 20260906112037 | 23 | 62 | 4.8 | 6.4 | 0.00 | 0.00 | 0.00 | 95 | 1016.0 |
| 20260906111536 | 23 | 93 | 3.2 | 9.7 | 0.00 | 0.00 | 0.00 | 95 | 1015.9 |
| 20260906111032 | 24 | 76 | 1.6 | 6.4 | 0.00 | 0.00 | 0.00 | 95 | 1016.1 |
| 20260906110531 | 24 | 106 | 3.2 | 9.7 | 0.00 | 0.00 | 0.00 | 95 | 1015.5 |
| 20260906110030 | 24 | 96 | 1.6 | 4.8 | 0.00 | 0.00 | 0.00 | 95 | 1015.5 |
| 20260906105525 | 24 | 87 | 1.6 | 11.3 | 0.00 | 0.00 | 0.00 | 95 | 1015.4 |
| 20260906105022 | 24 | 92 | 9.7 | 11.3 | 0.00 | 0.00 | 0.00 | 95 | 1015.8 |
| 20260906104520 | 24 | 96 | 4.8 | 9.7 | 0.00 | 0.00 | 0.00 | 95 | 1015.6 |
| 20260906104015 | 24 | 87 | 4.8 | 11.3 | 0.00 | 0.00 | 0.00 | 95 | 1015.5 |
| 20260906103513 | 24 | 94 | 8.0 | 9.7 | 0.00 | 0.00 | 0.00 | 95 | 1015.5 |
| 20260906103009 | 24 | 98 | 3.2 | 9.7 | 0.00 | 0.00 | 0.00 | 95 | 1015.4 |
| 20260906102508 | 24 | 79 | 6.4 | 9.7 | 0.00 | 0.00 | 0.00 | 95 | 1015.6 |
| 20260906102003 | 24 | 68 | 4.8 | 11.3 | 0.00 | 0.00 | 0.00 | 95 | 1015.7 |
| 20260906101457 | 24 | 90 | 1.6 | 6.4 | 0.00 | 0.00 | 0.00 | 95 | 1015.8 |
| 20260906100952 | 24 | 96 | 4.8 | 12.9 | 0.00 | 0.00 | 0.00 | 95 | 1015.5 |
| 20260906100447 | 25 | 87 | 6.4 | 9.7 | 0.00 | 0.00 | 0.00 | 95 | 1015.7 |
| 20260906095942 | 25 | 87 | 4.8 | 11.3 | 0.00 | 0.00 | 0.00 | 95 | 1015.6 |
| 20260906095438 | 25 | 116 | 6.4 | 6.4 | 0.00 | 0.00 | 0.00 | 95 | 1015.6 |
| 20260906094932 | 25 | 72 | 8.0 | 11.3 | 0.00 | 0.00 | 0.00 | 95 | 1015.3 |
| 20260906094426 | 25 | 85 | 4.8 | 9.7 | 0.00 | 0.00 | 0.00 | 95 | 1015.4 |
| 20260906093923 | 25 | 90 | 6.4 | 12.9 | 0.00 | 0.00 | 0.00 | 95 | 1015.3 |
| 20260906093419 | 25 | 90 | 3.2 | 11.3 | 0.00 | 0.00 | 0.00 | 95 | 1015.4 |
| 20260906092918 | 25 | 93 | 4.8 | 6.4 | 0.00 | 0.00 | 0.00 | 95 | 1015.4 |
| 20260906092413 | 25 | 57 | 6.4 | 12.9 | 0.00 | 0.00 | 0.00 | 95 | 1015.1 |
| 20260906091909 | 25 | 95 | 8.0 | 11.3 | 0.00 | 0.00 | 0.00 | 95 | 1015.1 |
| 20260906091404 | 25 | 102 | 8.0 | 11.3 | 0.00 | 0.00 | 0.00 | 95 | 1015.0 |
| 20260906090901 | 24 | 86 | 4.8 | 9.7 | 0.00 | 0.00 | 0.00 | 95 | 1014.9 |
| 20260906090400 | 24 | 88 | 4.8 | 11.3 | 0.00 | 0.00 | 0.00 | 95 | 1014.9 |
| 20260906085900 | 24 | 99 | 6.4 | 11.3 | 0.00 | 0.00 | 0.00 | 95 | 1014.9 |
| 20260906085354 | 24 | 66 | 1.6 | 11.3 | 0.00 | 0.00 | 0.00 | 95 | 1014.8 |
| 20260906084849 | 24 | 72 | 0.0 | 14.5 | 0.00 | 0.00 | 0.00 | 95 | 1014.7 |
| 20260906084348 | 25 | 62 | 1.6 | 9.7 | 0.00 | 0.00 | 0.00 | 95 | 1014.8 |
| 20260906083837 | 25 | 84 | 4.8 | 6.4 | 0.00 | 0.00 | 0.00 | 95 | 1014.8 |
| 20260906083333 | 25 | 79 | 4.8 | 6.4 | 0.00 | 0.00 | 0.00 | 95 | 1014.7 |
| 20260906082832 | 25 | 84 | 3.2 | 9.7 | 0.00 | 0.00 | 0.00 | 95 | 1014.8 |
| 20260906082327 | 25 | 92 | 4.8 | 6.4 | 0.00 | 0.00 | 0.00 | 95 | 1014.7 |
| 20260906081823 | 25 | 87 | 1.6 | 9.7 | 0.00 | 0.00 | 0.00 | 95 | 1015.0 |
| 20260906081319 | 25 | 76 | 4.8 | 6.4 | 0.00 | 0.00 | 0.00 | 95 | 1014.7 |
| 20260906080814 | 25 | 71 | 3.2 | 9.7 | 0.00 | 0.00 | 0.00 | 95 | 1014.7 |
| 20260906080310 | 25 | 89 | 3.2 | 9.7 | 0.00 | 0.00 | 0.00 | 95 | 1014.6 |
| 20260906075805 | 25 | 80 | 3.2 | 4.8 | 0.00 | 0.00 | 0.00 | 95 | 1014.6 |
| 20260906075306 | 25 | 89 | 8.0 | 9.7 | 0.00 | 0.00 | 0.00 | 95 | 1014.5 |
| 20260906074800 | 25 | 88 | 6.4 | 11.3 | 0.00 | 0.00 | 0.00 | 95 | 1014.4 |
| 20260906074259 | 25 | 74 | 1.6 | 11.3 | 0.00 | 0.00 | 0.00 | 95 | 1014.4 |
| 20260906073759 | 25 | 81 | 6.4 | 6.4 | 0.00 | 0.00 | 0.00 | 95 | 1014.8 |
| 20260906073253 | 25 | 91 | 6.4 | 9.7 | 0.00 | 0.00 | 0.00 | 95 | 1014.8 |
| 20260906072750 | 25 | 88 | 3.2 | 9.7 | 0.00 | 0.00 | 0.00 | 95 | 1014.7 |
| 20260906072245 | 25 | 92 | 3.2 | 9.7 | 0.00 | 0.00 | 0.00 | 95 | 1014.8 |
| 20260906071741 | 25 | 64 | 3.2 | 6.4 | 0.00 | 0.00 | 0.00 | 95 | 1014.6 |
| 20260906071240 | 25 | 77 | 1.6 | 9.7 | 0.00 | 0.00 | 0.00 | 95 | 1014.9 |
| 20260906070737 | 25 | 79 | 4.8 | 4.8 | 0.00 | 0.00 | 0.00 | 95 | 1014.9 |
| 20260906070232 | 25 | 81 | 1.6 | 9.7 | 0.00 | 0.00 | 0.00 | 95 | 1014.8 |
| 20260906065732 | 25 | 72 | 0.0 | 4.8 | 0.00 | 0.00 | 0.00 | 95 | 1014.9 |
| 20260906065227 | 25 | 86 | 4.8 | 6.4 | 0.00 | 0.00 | 0.00 | 94 | 1015.0 |
| 20260906064722 | 25 | 77 | 3.2 | 4.8 | 0.00 | 0.00 | 0.00 | 94 | 1015.1 |
| 20260906064218 | 25 | 66 | 3.2 | 6.4 | 0.00 | 0.00 | 0.00 | 94 | 1015.3 |
| 20260906063713 | 25 | 80 | 3.2 | 6.4 | 0.00 | 0.00 | 0.00 | 94 | 1015.2 |
| 20260906063208 | 25 | 50 | 6.4 | 9.7 | 0.00 | 0.00 | 0.00 | 93 | 1015.2 |
| 20260906062704 | 25 | 86 | 4.8 | 6.4 | 0.00 | 0.00 | 0.00 | 93 | 1015.1 |
| 20260906062203 | 25 | 78 | 3.2 | 4.8 | 0.00 | 0.00 | 0.00 | 93 | 1015.2 |
| 20260906061659 | 25 | 71 | 1.6 | 4.8 | 0.00 | 0.00 | 0.00 | 93 | 1015.1 |
| 20260906061154 | 25 | 64 | 3.2 | 3.2 | 0.00 | 0.00 | 0.00 | 93 | 1015.3 |
| 20260906060651 | 25 | 62 | 3.2 | 4.8 | 0.00 | 0.00 | 0.00 | 93 | 1015.2 |
| 20260906060148 | 25 | 70 | 1.6 | 4.8 | 0.00 | 0.00 | 0.00 | 92 | 1015.1 |
| 20260906055643 | 25 | 73 | 4.8 | 4.8 | 0.00 | 0.00 | 0.00 | 92 | 1015.1 |
| 20260906055138 | 25 | 65 | 1.6 | 6.4 | 0.00 | 0.00 | 0.00 | 92 | 1015.3 |
| 20260906054633 | 25 | 65 | 1.6 | 1.6 | 0.00 | 0.00 | 0.00 | 92 | 1015.6 |
| 20260906054128 | 25 | 64 | 1.6 | 3.2 | 0.00 | 0.00 | 0.00 | 92 | 1015.0 |
| 20260906053625 | 25 | 67 | 0.0 | 1.6 | 0.00 | 0.00 | 0.00 | 92 | 1015.4 |
| 20260906053119 | 26 | 65 | 1.6 | 1.6 | 0.00 | 0.00 | 0.00 | 91 | 1015.3 |
| 20260906052615 | 26 | 65 | 1.6 | 3.2 | 0.00 | 0.00 | 0.00 | 91 | 1015.1 |
| 20260906052112 | 26 | 65 | 1.6 | 3.2 | 0.00 | 0.00 | 0.00 | 91 | 1015.3 |
| 20260906051608 | 26 | 66 | 1.6 | 3.2 | 0.00 | 0.00 | 0.00 | 91 | 1015.2 |
| 20260906051057 | 26 | 65 | 1.6 | 3.2 | 0.00 | 0.00 | 0.00 | 90 | 1015.0 |
| 20260906050557 | 26 | 65 | 0.0 | 3.2 | 0.00 | 0.00 | 0.00 | 90 | 1014.9 |
| 20260906050053 | 26 | 64 | 0.0 | 3.2 | 0.00 | 0.00 | 0.00 | 90 | 1015.1 |
| 20260906045551 | 26 | 64 | 1.6 | 3.2 | 0.00 | 0.00 | 0.00 | 90 | 1015.1 |
| 20260906045047 | 26 | 64 | 3.2 | 3.2 | 0.00 | 0.00 | 0.00 | 89 | 1015.0 |
| 20260906044542 | 26 | 64 | 0.0 | 3.2 | 0.00 | 0.00 | 0.00 | 89 | 1014.9 |
| 20260906044038 | 26 | 64 | 1.6 | 3.2 | 0.00 | 0.00 | 0.00 | 89 | 1014.8 |
| 20260906043534 | 26 | 63 | 1.6 | 3.2 | 0.00 | 0.00 | 0.00 | 89 | 1015.2 |
| 20260906043030 | 26 | 63 | 1.6 | 3.2 | 0.00 | 0.00 | 0.00 | 88 | 1014.8 |
| 20260906042528 | 26 | 64 | 1.6 | 3.2 | 0.00 | 0.00 | 0.00 | 88 | 1014.8 |
| 20260906042023 | 26 | 64 | 1.6 | 3.2 | 0.00 | 0.00 | 0.00 | 88 | 1014.6 |
| 20260906041520 | 26 | 65 | 1.6 | 4.8 | 0.00 | 0.00 | 0.00 | 88 | 1014.7 |
| 20260906041019 | 26 | 65 | 3.2 | 4.8 | 0.00 | 0.00 | 0.00 | 88 | 1015.0 |
| 20260906040515 | 26 | 65 | 3.2 | 4.8 | 0.00 | 0.00 | 0.00 | 87 | 1014.8 |
| 20260906040010 | 26 | 65 | 1.6 | 3.2 | 0.00 | 0.00 | 0.00 | 88 | 1014.8 |
| 20260906035505 | 26 | 65 | 3.2 | 3.2 | 0.00 | 0.00 | 0.00 | 87 | 1014.7 |
| 20260906035001 | 26 | 63 | 1.6 | 4.8 | 0.00 | 0.00 | 0.00 | 87 | 1014.7 |
| 20260906034500 | 26 | 66 | 1.6 | 4.8 | 0.00 | 0.00 | 0.00 | 87 | 1014.6 |
| 20260906033955 | 26 | 65 | 1.6 | 4.8 | 0.00 | 0.00 | 0.00 | 87 | 1014.6 |
| 20260906033450 | 27 | 67 | 1.6 | 3.2 | 0.00 | 0.00 | 0.00 | 87 | 1014.4 |
| 20260906032946 | 27 | 65 | 1.6 | 4.8 | 0.00 | 0.00 | 0.00 | 86 | 1014.3 |
| 20260906032442 | 27 | 65 | 3.2 | 3.2 | 0.00 | 0.00 | 0.00 | 86 | 1014.4 |
| 20260906031937 | 27 | 65 | 1.6 | 3.2 | 0.00 | 0.00 | 0.00 | 85 | 1014.3 |
| 20260906031432 | 27 | 63 | 0.0 | 3.2 | 0.00 | 0.00 | 0.00 | 85 | 1014.3 |
| 20260906030927 | 27 | 66 | 0.0 | 4.8 | 0.00 | 0.00 | 0.00 | 85 | 1014.3 |
| 20260906030422 | 27 | 67 | 0.0 | 4.8 | 0.00 | 0.00 | 0.00 | 85 | 1014.5 |
| 20260906025916 | 27 | 70 | 1.6 | 3.2 | 0.00 | 0.00 | 0.00 | 84 | 1014.0 |
| 20260906025411 | 27 | 58 | 3.2 | 4.8 | 0.00 | 0.00 | 0.00 | 84 | 1014.3 |
| 20260906024910 | 27 | 73 | 1.6 | 4.8 | 0.00 | 0.00 | 0.00 | 84 | 1014.1 |
| 20260906024409 | 27 | 64 | 3.2 | 4.8 | 0.00 | 0.00 | 0.00 | 83 | 1013.9 |
| 20260906023904 | 27 | 63 | 0.0 | 4.8 | 0.00 | 0.00 | 0.00 | 83 | 1013.6 |
| 20260906023400 | 27 | 64 | 3.2 | 4.8 | 0.00 | 0.00 | 0.00 | 83 | 1014.0 |
| 20260906022855 | 27 | 70 | 3.2 | 3.2 | 0.00 | 0.00 | 0.00 | 83 | 1013.7 |
| 20260906022350 | 27 | 70 | 1.6 | 4.8 | 0.00 | 0.00 | 0.00 | 82 | 1013.7 |
| 20260906021845 | 28 | 69 | 1.6 | 4.8 | 0.00 | 0.00 | 0.00 | 81 | 1013.5 |
| 20260906021344 | 28 | 65 | 1.6 | 4.8 | 0.00 | 0.00 | 0.00 | 79 | 1013.4 |
| 20260906020834 | 28 | 72 | 0.0 | 4.8 | 0.00 | 0.00 | 0.00 | 79 | 1013.5 |
| 20260906020333 | 28 | 75 | 0.0 | 1.6 | 0.00 | 0.00 | 0.00 | 78 | 1013.1 |
| 20260906015828 | 28 | 75 | 0.0 | 1.6 | 0.00 | 0.00 | 0.00 | 78 | 1013.4 |
| 20260906015326 | 28 | 75 | 0.0 | 0.0 | 0.00 | 0.00 | 0.00 | 77 | 1013.1 |
| 20260906014821 | 28 | 76 | 0.0 | 0.0 | 0.00 | 0.00 | 0.00 | 77 | 1013.1 |
| 20260906014316 | 28 | 76 | 0.0 | 1.6 | 0.00 | 0.00 | 0.00 | 77 | 1013.2 |
| 20260906013812 | 28 | 76 | 0.0 | 3.2 | 0.00 | 0.00 | 0.00 | 77 | 1013.1 |
| 20260906013307 | 28 | 76 | 0.0 | 0.0 | 0.00 | 0.00 | 0.00 | 78 | 1013.1 |
| 20260906012803 | 28 | 76 | 0.0 | 1.6 | 0.00 | 0.00 | 0.00 | 78 | 1013.0 |
| 20260906012258 | 28 | 76 | 0.0 | 0.0 | 0.00 | 0.00 | 0.00 | 78 | 1013.0 |
| 20260906011753 | 28 | 76 | 0.0 | 0.0 | 0.00 | 0.00 | 0.00 | 77 | 1012.8 |
| 20260906011252 | 28 | 76 | 0.0 | 0.0 | 0.00 | 0.00 | 0.00 | 77 | 1012.7 |
| 20260906010748 | 28 | 76 | 0.0 | 1.6 | 0.00 | 0.00 | 0.00 | 77 | 1012.9 |
| 20260906010244 | 29 | 76 | 0.0 | 0.0 | 0.00 | 0.00 | 0.00 | 76 | 1012.7 |
| 20260906005739 | 29 | 76 | 0.0 | 0.0 | 0.00 | 0.00 | 0.00 | 76 | 1012.7 |
| 20260906005237 | 29 | 77 | 0.0 | 0.0 | 0.00 | 0.00 | 0.00 | 75 | 1012.8 |
| 20260906004737 | 30 | 77 | 0.0 | 1.6 | 0.00 | 0.00 | 0.00 | 74 | 1012.7 |
| 20260906004227 | 30 | 77 | 0.0 | 1.6 | 0.00 | 0.00 | 0.00 | 70 | 1012.7 |
| 20260906003721 | 30 | 77 | 0.0 | 1.6 | 0.00 | 0.00 | 0.00 | 69 | 1012.6 |
| 20260906003217 | 30 | 77 | 0.0 | 1.6 | 0.00 | 0.00 | 0.00 | 69 | 1012.5 |
| 20260906002711 | 30 | 77 | 0.0 | 1.6 | 0.00 | 0.00 | 0.00 | 71 | 1012.8 |
| 20260906002206 | 31 | 77 | 0.0 | 0.0 | 0.00 | 0.00 | 0.00 | 70 | 1012.7 |
| 20260906001701 | 31 | 77 | 0.0 | 0.0 | 0.00 | 0.00 | 0.00 | 69 | 1012.8 |
| 20260906001201 | 31 | 77 | 0.0 | 0.0 | 0.00 | 0.00 | 0.00 | 69 | 1012.9 |
| 20260906000657 | 31 | 77 | 0.0 | 0.0 | 0.00 | 0.00 | 0.00 | 67 | 1012.8 |
| 20260906000152 | 32 | 77 | 0.0 | 0.0 | 0.00 | 0.00 | 0.00 | 66 | 1012.9 |
| 20260905235651 | 32 | 77 | 0.0 | 0.0 | 0.00 | 0.00 | 0.00 | 66 | 1013.2 |
| 20260905235146 | 32 | 77 | 0.0 | 1.6 | 0.00 | 0.00 | 0.00 | 65 | 1012.7 |
| 20260905234641 | 32 | 77 | 0.0 | 1.6 | 0.00 | 0.00 | 0.00 | 65 | 1012.9 |
| 20260905234137 | 32 | 76 | 0.0 | 3.2 | 0.00 | 0.00 | 0.00 | 64 | 1013.0 |
| 20260905233632 | 32 | 70 | 0.0 | 1.6 | 0.00 | 0.00 | 0.00 | 64 | 1013.0 |
| 20260905233126 | 32 | 67 | 0.0 | 1.6 | 0.00 | 0.00 | 0.00 | 63 | 1012.7 |
| 20260905232622 | 32 | 80 | 0.0 | 3.2 | 0.00 | 0.00 | 0.00 | 63 | 1012.8 |
| 20260905232118 | 33 | 65 | 0.0 | 3.2 | 0.00 | 0.00 | 0.00 | 61 | 1012.6 |
| 20260905231617 | 33 | 61 | 3.2 | 4.8 | 0.00 | 0.00 | 0.00 | 60 | 1012.8 |
| 20260905231113 | 33 | 67 | 0.0 | 4.8 | 0.00 | 0.00 | 0.00 | 61 | 1012.9 |
| 20260905230609 | 33 | 75 | 3.2 | 6.4 | 0.00 | 0.00 | 0.00 | 60 | 1012.8 |
| 20260905230106 | 33 | 69 | 1.6 | 4.8 | 0.00 | 0.00 | 0.00 | 59 | 1012.7 |
| 20260905225601 | 33 | 68 | 0.0 | 1.6 | 0.00 | 0.00 | 0.00 | 59 | 1012.8 |
| 20260905225055 | 33 | 50 | 1.6 | 6.4 | 0.00 | 0.00 | 0.00 | 57 | 1012.6 |
| 20260905224550 | 33 | 72 | 3.2 | 3.2 | 0.00 | 0.00 | 0.00 | 57 | 1012.8 |
| 20260905224049 | 33 | 77 | 0.0 | 1.6 | 0.00 | 0.00 | 0.00 | 57 | 1012.7 |
| 20260905223547 | 33 | 68 | 0.0 | 1.6 | 0.00 | 0.00 | 0.00 | 57 | 1012.8 |
| 20260905223043 | 33 | 75 | 1.6 | 4.8 | 0.00 | 0.00 | 0.00 | 57 | 1012.9 |
| 20260905222542 | 33 | 58 | 3.2 | 4.8 | 0.00 | 0.00 | 0.00 | 56 | 1012.7 |
| 20260905222037 | 33 | 94 | 1.6 | 6.4 | 0.00 | 0.00 | 0.00 | 57 | 1012.8 |
| 20260905221534 | 33 | 96 | 0.0 | 6.4 | 0.00 | 0.00 | 0.00 | 58 | 1012.8 |
| 20260905221030 | 34 | 122 | 1.6 | 4.8 | 0.00 | 0.00 | 0.00 | 57 | 1012.7 |
| 20260905220526 | 33 | 109 | 1.6 | 6.4 | 0.00 | 0.00 | 0.00 | 56 | 1012.7 |
| 20260905220022 | 34 | 57 | 6.4 | 9.7 | 0.00 | 0.00 | 0.00 | 56 | 1012.7 |
| 20260905215521 | 33 | 79 | 1.6 | 1.6 | 0.00 | 0.00 | 0.00 | 57 | 1012.9 |
| 20260905215017 | 33 | 86 | 3.2 | 9.7 | 0.00 | 0.00 | 0.00 | 56 | 1012.9 |
| 20260905214513 | 34 | 137 | 3.2 | 6.4 | 0.00 | 0.00 | 0.00 | 57 | 1012.9 |
| 20260905214008 | 33 | 121 | 3.2 | 6.4 | 0.00 | 0.00 | 0.00 | 58 | 1012.7 |
| 20260905213503 | 34 | 115 | 3.2 | 4.8 | 0.00 | 0.00 | 0.00 | 56 | 1012.9 |
| 20260905212958 | 34 | 79 | 1.6 | 3.2 | 0.00 | 0.00 | 0.00 | 57 | 1012.8 |
| 20260905212453 | 34 | 63 | 1.6 | 9.7 | 0.00 | 0.00 | 0.00 | 55 | 1013.0 |
| 20260905211952 | 34 | 58 | 1.6 | 6.4 | 0.00 | 0.00 | 0.00 | 57 | 1013.1 |
| 20260905211448 | 35 | 122 | 3.2 | 3.2 | 0.00 | 0.00 | 0.00 | 56 | 1012.8 |
| 20260905210944 | 34 | 122 | 1.6 | 4.8 | 0.00 | 0.00 | 0.00 | 57 | 1013.1 |
| 20260905210439 | 34 | 80 | 1.6 | 3.2 | 0.00 | 0.00 | 0.00 | 56 | 1012.9 |
| 20260905205938 | 35 | 80 | 0.0 | 3.2 | 0.00 | 0.00 | 0.00 | 56 | 1013.2 |
| 20260905205433 | 34 | 83 | 1.6 | 4.8 | 0.00 | 0.00 | 0.00 | 57 | 1013.1 |
| 20260905204932 | 35 | 71 | 0.0 | 4.8 | 0.00 | 0.00 | 0.00 | 55 | 1013.1 |
| 20260905204428 | 33 | 128 | 1.6 | 4.8 | 0.00 | 0.00 | 0.00 | 58 | 1013.5 |
| 20260905203927 | 33 | 70 | 1.6 | 3.2 | 0.00 | 0.00 | 0.00 | 59 | 1013.6 |
| 20260905203422 | 33 | 69 | 1.6 | 3.2 | 0.00 | 0.00 | 0.00 | 60 | 1013.4 |
| 20260905202918 | 32 | 68 | 0.0 | 1.6 | 0.00 | 0.00 | 0.00 | 63 | 1013.4 |
| 20260905202413 | 33 | 68 | 3.2 | 3.2 | 0.00 | 0.00 | 0.00 | 59 | 1013.7 |
| 20260905201909 | 33 | 67 | 0.0 | 1.6 | 0.00 | 0.00 | 0.00 | 61 | 1013.5 |
| 20260905201403 | 33 | 67 | 1.6 | 1.6 | 0.00 | 0.00 | 0.00 | 60 | 1013.8 |
| 20260905200858 | 33 | 58 | 0.0 | 3.2 | 0.00 | 0.00 | 0.00 | 60 | 1013.4 |
| 20260905200354 | 33 | 59 | 0.0 | 3.2 | 0.00 | 0.00 | 0.00 | 57 | 1013.9 |
| 20260905195851 | 33 | 54 | 0.0 | 1.6 | 0.00 | 0.00 | 0.00 | 59 | 1013.8 |
| 20260905195341 | 33 | 66 | 1.6 | 3.2 | 0.00 | 0.00 | 0.00 | 58 | 1014.0 |
| 20260905194837 | 33 | 60 | 0.0 | 4.8 | 0.00 | 0.00 | 0.00 | 59 | 1014.1 |
| 20260905194337 | 33 | 75 | 0.0 | 3.2 | 0.00 | 0.00 | 0.00 | 59 | 1014.1 |
| 20260905193836 | 33 | 56 | 1.6 | 3.2 | 0.00 | 0.00 | 0.00 | 60 | 1014.4 |
| 20260905193331 | 33 | 75 | 1.6 | 6.4 | 0.00 | 0.00 | 0.00 | 60 | 1013.9 |
| 20260905192827 | 33 | 11 | 3.2 | 9.7 | 0.00 | 0.00 | 0.00 | 58 | 1014.3 |
| 20260905192323 | 33 | 48 | 0.0 | 3.2 | 0.00 | 0.00 | 0.00 | 58 | 1014.1 |
| 20260905191821 | 33 | 65 | 1.6 | 3.2 | 0.00 | 0.00 | 0.00 | 57 | 1014.5 |
| 20260905191320 | 34 | 13 | 3.2 | 9.7 | 0.00 | 0.00 | 0.00 | 55 | 1014.4 |
| 20260905190819 | 34 | 57 | 3.2 | 4.8 | 0.00 | 0.00 | 0.00 | 55 | 1014.4 |
| 20260905190318 | 33 | 58 | 1.6 | 11.3 | 0.00 | 0.00 | 0.00 | 58 | 1014.6 |
| 20260905185817 | 34 | 64 | 3.2 | 4.8 | 0.00 | 0.00 | 0.00 | 56 | 1014.7 |
| 20260905185312 | 34 | 10 | 3.2 | 9.7 | 0.00 | 0.00 | 0.00 | 56 | 1014.7 |
| 20260905184807 | 35 | 70 | 3.2 | 6.4 | 0.00 | 0.00 | 0.00 | 55 | 1014.7 |
| 20260905184305 | 35 | 37 | 0.0 | 6.4 | 0.00 | 0.00 | 0.00 | 54 | 1014.9 |
| 20260905183759 | 35 | 27 | 3.2 | 4.8 | 0.00 | 0.00 | 0.00 | 52 | 1014.6 |
| 20260905183255 | 36 | 64 | 1.6 | 6.4 | 0.00 | 0.00 | 0.00 | 52 | 1014.9 |
| 20260905182754 | 35 | 75 | 3.2 | 6.4 | 0.00 | 0.00 | 0.00 | 50 | 1014.7 |
| 20260905182254 | 35 | 39 | 3.2 | 9.7 | 0.00 | 0.00 | 0.00 | 52 | 1014.8 |
| 20260905181749 | 35 | 57 | 0.0 | 4.8 | 0.00 | 0.00 | 0.00 | 56 | 1014.8 |
| 20260905181248 | 34 | 28 | 0.0 | 6.4 | 0.00 | 0.00 | 0.00 | 58 | 1015.0 |
| 20260905180743 | 35 | 310 | 6.4 | 6.4 | 0.00 | 0.00 | 0.00 | 55 | 1014.8 |
| 20260905180238 | 34 | 4 | 4.8 | 4.8 | 0.00 | 0.00 | 0.00 | 54 | 1014.8 |
| 20260905175732 | 35 | 12 | 4.8 | 11.3 | 0.00 | 0.00 | 0.00 | 54 | 1015.1 |
| 20260905175227 | 35 | 70 | 1.6 | 6.4 | 0.00 | 0.00 | 0.00 | 55 | 1015.0 |
| 20260905174722 | 35 | 19 | 6.4 | 6.4 | 0.00 | 0.00 | 0.00 | 56 | 1014.9 |
| 20260905174218 | 35 | 16 | 4.8 | 4.8 | 0.00 | 0.00 | 0.00 | 54 | 1014.9 |
| 20260905173708 | 35 | 328 | 6.4 | 11.3 | 0.00 | 0.00 | 0.00 | 53 | 1014.9 |
| 20260905173203 | 35 | 24 | 1.6 | 3.2 | 0.00 | 0.00 | 0.00 | 54 | 1014.9 |
| 20260905172703 | 35 | 45 | 1.6 | 3.2 | 0.00 | 0.00 | 0.00 | 53 | 1014.8 |
| 20260905172157 | 34 | 14 | 1.6 | 4.8 | 0.00 | 0.00 | 0.00 | 54 | 1014.8 |
| 20260905171653 | 34 | 5 | 1.6 | 6.4 | 0.00 | 0.00 | 0.00 | 55 | 1015.0 |
| 20260905171149 | 35 | 13 | 1.6 | 3.2 | 0.00 | 0.00 | 0.00 | 52 | 1014.9 |
| 20260905170647 | 35 | 342 | 4.8 | 6.4 | 0.00 | 0.00 | 0.00 | 52 | 1015.0 |
| 20260905170141 | 35 | 2 | 3.2 | 3.2 | 0.00 | 0.00 | 0.00 | 52 | 1015.0 |
| 20260905165641 | 35 | 19 | 3.2 | 6.4 | 0.00 | 0.00 | 0.00 | 52 | 1015.2 |
| 20260905165136 | 36 | 15 | 3.2 | 4.8 | 0.00 | 0.00 | 0.00 | 51 | 1015.0 |